Regional Weather Roundup
Issued by NWS

Home | Current Version | Previous Version | Graphics & Text | Print | Product List | Glossary On
Versions: 1 2 3 4 5 6 7 8 9 10 11 12 13 14 15 16 17 18 19 20 21 22 23 24 25 26 27 28 29 30 31 32 33 34 35 36 37 38 39 40 41 42 43 44 45 46 47 48 49 50
434
ASUS43 KOAX 261902
RWRNE

WEATHER ROUNDUP FOR NEBRASKA
NATIONAL WEATHER SERVICE OMAHA NE
200 PM CDT THU MAY 26 2016

NOTES: SATELLITE DATA IS BEING USED TO AUGMENT CLOUD COVER ABOVE
       12000 FEET.
       "FAIR" INDICATES FEW OR NO CLOUDS BELOW 12,000 FEET WITH NO
       SIGNIFICANT WEATHER AND/OR OBSTRUCTIONS TO VISIBILITY.

  * THESE STATIONS DO NOT REPORT WEATHER SUCH AS RAIN...SNOW OR FOG.

NEZ001>004-019>022-054>056-262000-
NEBRASKA PANHANDLE

CITY           SKY/WX    TMP DP  RH WIND       PRES   REMARKS
SCOTTSBLUFF    CLOUDY    70  40  33 CALM      29.90F
ALLIANCE       CLOUDY    69  39  33 NW3       29.90R
CHADRON        MOSUNNY   70  42  36 VRB6      29.89F
SIDNEY         LGT RAIN  64  52  64 N15G21    29.92F
$$

NEZ057>060-069>072-079>082-262000-
SOUTHWEST NEBRASKA

CITY           SKY/WX    TMP DP  RH WIND       PRES   REMARKS
NORTH PLATTE   SUNNY     76  46  34 E13       29.85F
IMPERIAL       SUNNY     74  46  36 E18       29.84F
LEXINGTON      MOSUNNY   72  60  67 NE10      29.85F
MCCOOK         SUNNY     75  56  51 E20G28    29.81F
$$

NEZ005>010-023>029-035>040-094-262000-
NORTH CENTRAL NEBRASKA

CITY           SKY/WX    TMP DP  RH WIND       PRES   REMARKS
VALENTINE      CLOUDY    72  47  40 SE5       29.86F
AINSWORTH      MOSUNNY   67  51  57 S5        29.89F
BROKEN BOW     SUNNY     74  52  46 E7        29.86F
ORD            MOSUNNY   74  56  53 N5        29.86F
$$

NEZ041-046>049-061>064-073>077-083>087-262000-
SOUTH CENTRAL NEBRASKA

CITY           SKY/WX    TMP DP  RH WIND       PRES   REMARKS
GRAND ISLAND   SUNNY     76  59  55 NE17      29.83F
HASTINGS       MOSUNNY   76  58  53 NE15G23   29.82F
KEARNEY *      SUNNY     73  55  53 NE13G18   29.84F
YORK           SUNNY     77  59  53 NE14      29.84S
$$

NEZ011>018-030>034-042>045-262000-
NORTHEAST NEBRASKA

CITY           SKY/WX    TMP DP  RH WIND       PRES   REMARKS
NORFOLK        CLOUDY    77  55  46 SE6       29.86F
ALBION         CLOUDY    75  53  45 CALM      29.86F
BLAIR          SUNNY     82  60  47 E8G16     29.84F
FREMONT        PTSUNNY   80  56  42 E9        29.85S
TEKAMAH        SUNNY     82  59  45 N9        29.84F
$$

NEZ050>053-065>068-078-088>093-262000-
SOUTHEAST NEBRASKA

CITY           SKY/WX    TMP DP  RH WIND       PRES   REMARKS
LINCOLN        MOSUNNY   82  67  60 NE10G20   29.78F
OMAHA EPPLEY   MOSUNNY   84  59  42 E12       29.82F
FALLS CITY     CLOUDY    76  68  76 SE9       29.79F
PLATTSMOUTH    MOSUNNY   84  68  59 SE8       29.81F
$$

NEZ044-045-051>053-067-262000-
OMAHA AREA

CITY           SKY/WX    TMP DP  RH WIND       PRES   REMARKS
OMAHA EPPLEY   MOSUNNY   84  59  42 E12       29.82F
BLAIR          SUNNY     82  60  47 E8G16     29.84F
FREMONT        PTSUNNY   80  56  42 E9        29.85S
OFFUTT AFB     MOSUNNY   84  66  55 NE8       29.80F
PLATTSMOUTH    MOSUNNY   84  68  59 SE8       29.81F
$$




USA.gov is the U.S. government's official web portal to all federal, state and local government web resources and services.